Regional Weather Roundup
Issued by NWS Kansas City/Pleasant Hill, MO

Home | Current Version | Previous Version | Graphics & Text | Print | Product List | Glossary Off
Versions: 1 2 3 4 5 6 7 8 9 10 11 12 13 14 15 16 17 18 19 20 21 22 23 24 25 26 27 28 29 30 31 32 33 34 35 36 37 38 39 40 41 42 43 44 45 46 47 48 49 50

000
ASUS43 KEAX 311010
RWREAX

WEATHER ROUNDUP FOR EASTERN KANSAS AND NORTHWEST MISSOURI
NATIONAL WEATHER SERVICE KANSAS CITY/PLEASANT HILL MO
500 AM CDT MON AUG 31 2015

KSZ040-057-103>105-MOZ028-029-037-043-311100-
...KANSAS CITY METROPOLITAN AREA...

CITY           SKY/WX    TMP DP  RH WIND       PRES   REMARKS
K.C. INTL      CLEAR     71  69  93 S7        29.96S
K.C. DOWNTOWN  CLEAR     75  70  84 S5        29.95S
LEES SUMMIT    CLEAR     72  69  90 S5        29.97S
OLATHE - IXD   CLEAR     70  69  97 SE5       29.97R FOG
OLATHE - OJC   CLEAR     69  69 100 SE6       29.96S FOG
LAWRENCE       PTCLDY    63  63 100 CALM      29.96R FOG

$$

MOZ001>008-011>017-020>025-030>033-038>040-044>046-053-054-311100-
...NORTHERN AND CENTRAL MISSOURI...

CITY           SKY/WX    TMP DP  RH WIND       PRES   REMARKS
ST. JOSEPH     FOG       65  65 100 CALM      29.95S VSB 1/2
MOSBY          SUNNY     70  70 100 CALM      29.96S FOG
WARRENSBURG    CLEAR     70  68  94 SE5       29.97R
WHITEMAN AFB   CLEAR     71  71  98 S7        29.97R
CLINTON        CLEAR     72  72 100 S5        29.98S
SEDALIA        CLEAR     71  68  90 S7        29.99S
WARSAW         NOT AVBL
CHILLICOTHE      N/A     70  68  93 CALM      29.98S
KIRKSVILLE     CLEAR     68  65  90 SE3       30.01R FOG

$$

MOZ041-047>049-056>058-063>065-088>090-097-311100-
...EASTERN AND SOUTHERN MISSOURI...

CITY           SKY/WX    TMP DP  RH WIND       PRES   REMARKS
ST. LOUIS INTL PTCLDY    75  70  84 S6        30.03R
SPIRIT OF STL  CLEAR     70  70 100 CALM      30.01R FOG
COLUMBIA       CLEAR     70  69  97 S7        30.00S FOG
JEFFERSON CITY CLEAR     70  68  93 SE6       29.99S FOG
ROLLA          CLEAR     71  68  90 S8        30.02R
OSAGE BEACH    CLEAR     70  66  88 SE6       30.01R
SPRINGFIELD    CLEAR     71  67  87 SE9       30.01S
BRANSON        CLEAR     68  68 100 CALM      30.04R
JOPLIN         CLEAR     71  67  87 MISG      29.98S
WEST PLAINS    MOCLDY    70  67  90 CALM      30.07R

$$

IAZ060-094-KSZ022-034>040-054-083-096-NEZ052-066-093-311100-
...KANSAS...SOUTHEAST NEBRASKA AND IOWA...

CITY           SKY/WX    TMP DP  RH WIND       PRES   REMARKS
TOPEKA         CLEAR     67  65  93 CALM      29.95S FOG
MANHATTAN      PTCLDY    62  62 100 CALM      29.94F FOG
EMPORIA        PTCLDY    64  64 100 CALM      29.96S FOG
CHANUTE        CLEAR     70  69  97 SE6       29.96S FOG
WICHITA        CLEAR     71  68  90 E5        29.94S FOG
OMAHA          PTCLDY    66  65  96 S5        29.94F
LINCOLN        FOG       64  64 100 SE5       29.95S VSB 3/4
FALLS CITY     FOG       65  65 100 CALM      29.95S VSB 1/4
LAMONI         CLEAR     69  67  93 E5        29.98S
DES MOINES     PTCLDY    69  65  86 SE6       29.97F

$$




USA.gov is the U.S. government's official web portal to all federal, state and local government web resources and services.